Home   Weather   Tuzla   Past weeks

Flag for Bosnia-Herzegovina Past Weather in Tuzla, Bosnia-Herzegovina — Yesterday and Last 2 Weeks

Now
68 °F

Scattered clouds.


Feels Like: 68 °F
Forecast: 52 / 76 °F
Wind: 6 mph from Southwest

Location: Tuzla

Current Time: Apr 26, 2017 at 7:46:38 pm

Latest Report: Apr 26, 2017 at 7:00 pm


Visibility: N/A

Pressure: 29.86 "Hg

Humidity: 38%

Dew Point: 41 °F

Location of TuzlaLocation

Past Weather in Tuzla — Graph

°F

Tuzla Temperature Yesterday

Maximum temperature yesterday: 72 °F (at 1:00 pm)
Minimum temperature yesterday: 34 °F (at 4:30 am)
Average temperature yesterday: 58 °F

High & Low Weather Summary for the Past Weeks

 TemperatureHumidityPressure
High73 °F (Apr 13, 2:00 pm)100% (Apr 16, 12:00 am)30.39 "Hg (Apr 16, 12:00 am)
Low28 °F (Apr 18, 5:30 am)15% (Apr 13, 1:00 pm)29.77 "Hg (Apr 13, 3:30 pm)
Average48 °F68%30.02 "Hg
* Reported Apr 11 6:00 pm — Apr 26 6:30 pm, Tuzla, Weather by CustomWeather, © 2017

Note: Actual official high and low records may vary slightly from our data, if they occured in-between our weather recording intervals... More about our weather records

Advertising

Tuzla Weather History for the Previous 24 Hours

Scroll right to see more
 ConditionsComfort  
Time TempWeatherWind HumidityBarometerVisibility
6:30 pm
Wed, Apr 26
70 °FScattered clouds.8 mph35%29.86 "HgN/A
6:00 pm72 °FScattered clouds.3 mph33%29.86 "HgN/A
5:30 pm70 °FPartly sunny.5 mph40%29.86 "HgN/A
5:00 pm70 °FPartly sunny.6 mph40%29.86 "HgN/A
4:30 pm70 °FPassing clouds.10 mph38%29.86 "HgN/A
4:00 pm72 °FPassing clouds.10 mph36%29.86 "HgN/A
3:30 pm73 °FPassing clouds.9 mph31%29.86 "HgN/A
3:00 pm73 °FPassing clouds.7 mph31%29.86 "HgN/A
2:00 pm73 °FPassing clouds.8 mph31%29.89 "HgN/A
1:30 pm72 °FPassing clouds.8 mph31%29.89 "HgN/A
1:00 pm72 °FPassing clouds.10 mph31%29.89 "HgN/A
12:30 pm72 °FSunny.5 mph29%29.89 "Hg10 mi
12:00 pm72 °FPassing clouds.5 mph29%29.92 "HgN/A
11:30 am70 °FPassing clouds.6 mph33%29.92 "HgN/A
11:00 am70 °FSunny.5 mph33%29.92 "Hg10 mi
10:30 am66 °FPassing clouds.9 mph37%29.92 "HgN/A
10:00 am64 °FPassing clouds.8 mph40%29.92 "HgN/A
9:30 am64 °FPassing clouds.8 mph40%29.92 "HgN/A
9:00 am61 °FPassing clouds.8 mph45%29.95 "HgN/A
8:30 am59 °FPassing clouds.8 mph48%29.95 "HgN/A
8:00 am57 °FPassing clouds.5 mph39%29.95 "HgN/A
7:30 am57 °FPassing clouds.6 mph39%29.95 "HgN/A
7:00 am54 °FPassing clouds.6 mph44%29.95 "HgN/A
6:30 am54 °FPassing clouds.6 mph44%29.95 "HgN/A
6:00 am54 °FSunny.3 mph44%29.95 "Hg10 mi
5:30 am52 °FPassing clouds.6 mph47%29.95 "HgN/A
5:00 am48 °FClear.6 mph50%29.92 "Hg10 mi
4:30 am46 °FClear.2 mph50%29.92 "Hg10 mi
12:00 am46 °FClear.2 mph62%29.95 "Hg10 mi
11:00 pm
Tue, Apr 25
50 °FClear.2 mph54%29.95 "Hg10 mi
10:30 pm48 °FClear.1 mph54%29.95 "Hg10 mi
10:00 pm52 °FClear.2 mph50%29.95 "Hg10 mi
9:30 pm52 °FClear.2 mph47%29.95 "Hg10 mi
9:00 pm55 °FClear.1 mph41%29.95 "Hg10 mi
8:30 pm59 °FClear.2 mph39%29.92 "Hg10 mi
8:00 pm63 °FPassing clouds.5 mph34%29.92 "HgN/A
7:30 pm64 °FPassing clouds.6 mph34%29.92 "HgN/A
7:00 pm66 °FSunny.7 mph32%29.92 "Hg10 mi
Weather by CustomWeather, © 2017

See weather overviewHow to use our weather pages